Location: Newark
(50.4348°N, 30.5552°E)
Time: 03:26:58
(UTC+00:00)

Altair - Pass Details

Date: 27 January 2020
Orbit: 1502 x 1682 km, 47.2° (Epoch: 18 February)

Event Time Altitude Azimuth Distance (km) Brightness Sun altitude
Rises 04:58:47 0° 203° (SSW) 4,845 10.1 -6.8°
Reaches altitude 10° 05:02:20 10° 194° (SSW) 3,884 9.7 -6.3°
Maximum altitude 05:10:39 31° 137° (SE) 2,618 9.6 -5.1°
Drops below altitude 10° 05:19:04 10° 80° (E) 3,949 10.6 -3.9°
Sets 05:22:42 0° 71° (ENE) 4,938 10.9 -3.3°
